Regional Weather Roundup
Issued by NWS

Home | Current Version | Previous Version | Text Only | Print | Product List | Glossary On
Versions: 1 2 3 4 5 6 7 8 9 10 11 12 13 14 15 16 17 18 19 20 21 22 23 24 25 26 27 28 29 30 31 32 33 34 35 36 37 38 39 40 41 42 43 44 45 46 47 48 49 50
000
ASCA42 TJSJ 260311
RWRPR
PUERTO RICO/U.S. VIRGIN ISLANDS HOURLY WEATHER ROUNDUP
NATIONAL WEATHER SERVICE SAN JUAN PR
1100 PM AST SUN JAN 25 2015

PRZ001-004-260400-
PUERTO RICO

CITY           SKY/WX    TMP DP  RH WIND       PRES   REMARKS
SAN JUAN LMM   CLEAR     75  70  83 CALM      30.03S
PONCE          PTCLDY    73  66  78 CALM      29.99R
AGUADILLA      CLEAR     73  66  78 CALM      30.04S
CEIBA          PTCLDY    73  70  88 CALM      30.06R
$$

PRZ006-007-260400-
U.S. VIRGIN ISLANDS

CITY           SKY/WX    TMP DP  RH WIND       PRES   REMARKS
$$

HOURLY WEATHER ROUNDUP FOR THE NEWS MEDIA

CITY           SKY/WX    TMP DP  RH WIND       PRES   REMARKS
MIAMI          CLEAR     60  46  59 SW5       30.04F
ORLANDO        CLEAR     55  46  71 S6        29.98F
NEW YORK       CLOUDY    34  10  37 N13       29.99R WCI  25
NEWARK         CLOUDY    32  12  43 N10       29.99R WCI  24
CHICAGO        PTCLDY    25  15  66 NE14      29.98R WCI  13
HARTFORD       CLEAR     26   9  48 VRB6      29.95R WCI  19
BOSTON         PTCLDY    23   6  48 NW14G22   29.99R WCI  11
DALLAS         CLEAR     52  26  36 N3        30.14R
PHILADELPHIA   LGT RAIN  38  33  82 NE7       29.94R WCI  33



USA.gov is the U.S. government's official web portal to all federal, state and local government web resources and services.